Time,TemperatureF,DewpointF,PressureIn,WindDirection,WindDirectionDegrees,WindSpeedMPH,WindSpeedGustMPH,Humidity,HourlyPrecipIn,Conditions,Clouds,dailyrainin,SoftwareType,DateUTC
2013-03-06 00:00:00,35.2,32.3,30.07,NE,50,2.0,2.0,89,0.00,,,0.00,weather-2.5,2013-03-06 05:00:00,
2013-03-06 00:05:00,35.2,32.3,30.07,ENE,61,4.0,5.0,89,0.00,,,0.00,weather-2.5,2013-03-06 05:05:00,
2013-03-06 00:10:00,35.1,32.2,30.07,NE,56,3.0,5.0,89,0.00,,,0.00,weather-2.5,2013-03-06 05:10:00,
2013-03-06 00:15:00,35.0,32.4,30.07,ENE,68,3.0,6.0,90,0.00,,,0.00,weather-2.5,2013-03-06 05:15:00,
2013-03-06 00:20:00,34.9,32.3,30.07,ENE,64,4.0,8.0,90,0.00,,,0.00,weather-2.5,2013-03-06 05:20:00,
2013-03-06 00:25:00,34.8,32.4,30.07,NE,55,2.0,2.0,91,0.00,,,0.00,weather-2.5,2013-03-06 05:25:00,
2013-03-06 00:30:00,34.7,32.3,30.08,NE,35,1.0,4.0,91,0.00,,,0.00,weather-2.5,2013-03-06 05:30:00,
2013-03-06 00:35:00,34.7,32.3,30.08,ENE,58,2.0,2.0,91,0.00,,,0.00,weather-2.5,2013-03-06 05:35:00,
2013-03-06 00:40:00,34.6,32.2,30.08,NE,42,2.0,2.0,91,0.00,,,0.00,weather-2.5,2013-03-06 05:40:00,
2013-03-06 00:45:00,34.6,32.2,30.08,NE,35,3.0,5.0,91,0.00,,,0.00,weather-2.5,2013-03-06 05:45:00,
2013-03-06 00:50:00,34.5,32.1,30.08,East,83,1.0,4.0,91,0.00,,,0.00,weather-2.5,2013-03-06 05:50:00,
2013-03-06 00:55:00,34.5,32.4,30.08,NNE,33,4.0,5.0,92,0.00,,,0.00,weather-2.5,2013-03-06 05:55:00,
2013-03-06 01:00:00,34.4,32.3,30.09,NE,47,2.0,2.0,92,0.00,,,0.00,weather-2.5,2013-03-06 06:00:00,
2013-03-06 01:05:00,34.3,32.2,30.09,NE,45,2.0,4.0,92,0.00,,,0.00,weather-2.5,2013-03-06 06:05:00,
2013-03-06 01:10:00,34.3,32.2,30.09,NE,52,1.0,3.0,92,0.00,,,0.00,weather-2.5,2013-03-06 06:10:00,
2013-03-06 01:15:00,34.2,32.4,30.09,NE,35,1.0,1.0,93,0.00,,,0.00,weather-2.5,2013-03-06 06:15:00,
2013-03-06 01:20:00,34.1,32.3,30.09,NE,42,2.0,3.0,93,0.00,,,0.00,weather-2.5,2013-03-06 06:20:00,
2013-03-06 01:25:00,34.1,32.3,30.09,NE,52,3.0,4.0,93,0.00,,,0.00,weather-2.5,2013-03-06 06:25:00,
2013-03-06 01:30:00,34.0,32.2,30.09,NE,47,3.0,3.0,93,0.00,,,0.00,weather-2.5,2013-03-06 06:30:00,
2013-03-06 01:35:00,34.0,32.2,30.09,NE,37,3.0,5.0,93,0.00,,,0.00,weather-2.5,2013-03-06 06:35:00,
2013-03-06 01:40:00,33.9,32.1,30.09,NE,38,2.0,2.0,93,0.00,,,0.00,weather-2.5,2013-03-06 06:40:00,
2013-03-06 01:45:00,33.9,32.1,30.09,ENE,60,2.0,6.0,93,0.00,,,0.00,weather-2.5,2013-03-06 06:45:00,
2013-03-06 01:50:00,33.7,32.2,30.09,NE,41,2.0,3.0,94,0.00,,,0.00,weather-2.5,2013-03-06 06:50:00,
2013-03-06 01:55:00,33.7,32.2,30.09,NE,46,3.0,5.0,94,0.00,,,0.00,weather-2.5,2013-03-06 06:55:00,
2013-03-06 02:00:00,33.7,32.2,30.09,NE,48,3.0,4.0,94,0.00,,,0.00,weather-2.5,2013-03-06 07:00:00,
2013-03-06 02:05:00,33.7,32.2,30.09,NE,48,2.0,2.0,94,0.00,,,0.00,weather-2.5,2013-03-06 07:05:00,
2013-03-06 02:10:00,33.6,32.1,30.09,NE,48,4.0,4.0,94,0.00,,,0.00,weather-2.5,2013-03-06 07:10:00,
2013-03-06 02:15:00,33.7,32.2,30.09,NE,52,3.0,4.0,94,0.00,,,0.00,weather-2.5,2013-03-06 07:15:00,
2013-03-06 02:20:00,33.6,32.1,30.09,ENE,58,2.0,4.0,94,0.00,,,0.00,weather-2.5,2013-03-06 07:20:00,
2013-03-06 02:25:00,33.7,32.2,30.09,NE,38,2.0,2.0,94,0.00,,,0.00,weather-2.5,2013-03-06 07:25:00,
2013-03-06 02:30:00,33.7,32.2,30.09,NE,47,2.0,4.0,94,0.00,,,0.00,weather-2.5,2013-03-06 07:30:00,
2013-03-06 02:35:00,33.8,32.0,30.09,NE,37,5.0,6.0,93,0.00,,,0.00,weather-2.5,2013-03-06 07:35:00,
2013-03-06 02:40:00,33.9,32.1,30.09,NE,54,4.0,7.0,93,0.00,,,0.00,weather-2.5,2013-03-06 07:40:00,
2013-03-06 02:45:00,33.9,32.1,30.10,NE,47,3.0,7.0,93,0.00,,,0.00,weather-2.5,2013-03-06 07:45:00,
2013-03-06 02:50:00,33.9,32.1,30.10,NNE,32,3.0,4.0,93,0.00,,,0.00,weather-2.5,2013-03-06 07:50:00,
2013-03-06 02:55:00,33.9,32.1,30.10,ENE,59,3.0,6.0,93,0.00,,,0.00,weather-2.5,2013-03-06 07:55:00,
2013-03-06 03:00:00,33.9,32.1,30.10,NE,55,4.0,4.0,93,0.00,,,0.00,weather-2.5,2013-03-06 08:00:00,
2013-03-06 03:05:00,33.9,32.1,30.10,ENE,65,3.0,4.0,93,0.00,,,0.00,weather-2.5,2013-03-06 08:05:00,
2013-03-06 03:10:00,33.9,32.1,30.11,NE,36,4.0,4.0,93,0.00,,,0.00,weather-2.5,2013-03-06 08:10:00,
2013-03-06 03:15:00,34.0,32.2,30.11,NE,34,5.0,8.0,93,0.00,,,0.00,weather-2.5,2013-03-06 08:15:00,
2013-03-06 03:20:00,34.0,32.2,30.11,ENE,58,4.0,11.0,93,0.00,,,0.00,weather-2.5,2013-03-06 08:20:00,
2013-03-06 03:25:00,34.0,31.9,30.11,ENE,62,4.0,5.0,92,0.00,,,0.00,weather-2.5,2013-03-06 08:25:00,
2013-03-06 03:30:00,34.1,32.0,30.11,NE,42,4.0,6.0,92,0.00,,,0.00,weather-2.5,2013-03-06 08:30:00,
2013-03-06 03:35:00,34.1,32.0,30.11,NE,51,3.0,5.0,92,0.00,,,0.00,weather-2.5,2013-03-06 08:35:00,
2013-03-06 03:40:00,34.1,32.0,30.11,NE,53,4.0,5.0,92,0.00,,,0.00,weather-2.5,2013-03-06 08:40:00,
2013-03-06 03:45:00,34.2,32.1,30.11,ENE,66,5.0,7.0,92,0.00,,,0.00,weather-2.5,2013-03-06 08:45:00,
2013-03-06 03:50:00,34.2,32.1,30.11,ENE,72,4.0,8.0,92,0.00,,,0.00,weather-2.5,2013-03-06 08:50:00,
2013-03-06 03:55:00,34.2,32.1,30.11,ENE,60,4.0,6.0,92,0.00,,,0.00,weather-2.5,2013-03-06 08:55:00,
2013-03-06 04:00:00,34.3,32.0,30.11,NE,51,3.0,4.0,91,0.00,,,0.00,weather-2.5,2013-03-06 09:00:00,
2013-03-06 04:05:00,34.4,32.1,30.11,ENE,60,9.0,14.0,91,0.00,,,0.00,weather-2.5,2013-03-06 09:05:00,
2013-03-06 04:10:00,34.5,31.9,30.11,NE,48,5.0,8.0,90,0.00,,,0.00,weather-2.5,2013-03-06 09:10:00,
2013-03-06 04:15:00,34.5,31.9,30.11,NE,55,8.0,11.0,90,0.00,,,0.00,weather-2.5,2013-03-06 09:15:00,
2013-03-06 04:20:00,34.6,32.0,30.11,NE,56,5.0,7.0,90,0.00,,,0.00,weather-2.5,2013-03-06 09:20:00,
2013-03-06 04:25:00,34.5,31.9,30.11,ENE,65,6.0,6.0,90,0.00,,,0.00,weather-2.5,2013-03-06 09:25:00,
2013-03-06 04:30:00,34.5,31.9,30.11,ENE,59,7.0,10.0,90,0.00,,,0.00,weather-2.5,2013-03-06 09:30:00,
2013-03-06 04:35:00,34.6,31.7,30.11,ENE,60,7.0,10.0,89,0.00,,,0.00,weather-2.5,2013-03-06 09:35:00,
2013-03-06 04:40:00,34.6,31.7,30.11,ENE,68,4.0,6.0,89,0.00,,,0.00,weather-2.5,2013-03-06 09:40:00,
2013-03-06 04:45:00,34.7,31.8,30.12,ENE,74,7.0,8.0,89,0.00,,,0.00,weather-2.5,2013-03-06 09:45:00,
2013-03-06 04:50:00,34.6,31.7,30.12,ENE,75,5.0,9.0,89,0.00,,,0.00,weather-2.5,2013-03-06 09:50:00,
2013-03-06 04:55:00,34.6,31.7,30.12,ENE,64,6.0,7.0,89,0.00,,,0.00,weather-2.5,2013-03-06 09:55:00,
2013-03-06 05:00:00,34.6,31.4,30.12,ENE,76,6.0,6.0,88,0.00,,,0.00,weather-2.5,2013-03-06 10:00:00,
2013-03-06 05:05:00,34.5,31.3,30.12,ENE,77,9.0,10.0,88,0.00,,,0.00,weather-2.5,2013-03-06 10:05:00,
2013-03-06 05:10:00,34.5,31.3,30.12,ENE,63,6.0,10.0,88,0.00,,,0.00,weather-2.5,2013-03-06 10:10:00,
2013-03-06 05:15:00,34.5,31.3,30.12,ENE,67,7.0,8.0,88,0.00,,,0.00,weather-2.5,2013-03-06 10:15:00,
2013-03-06 05:20:00,34.5,31.3,30.12,ENE,62,9.0,13.0,88,0.00,,,0.00,weather-2.5,2013-03-06 10:20:00,
2013-03-06 05:25:00,34.4,31.2,30.12,East,79,4.0,5.0,88,0.00,,,0.00,weather-2.5,2013-03-06 10:25:00,
2013-03-06 05:30:00,34.3,31.1,30.13,ENE,69,9.0,13.0,88,0.00,,,0.00,weather-2.5,2013-03-06 10:30:00,
2013-03-06 05:35:00,34.3,31.1,30.13,ENE,69,6.0,12.0,88,0.00,,,0.00,weather-2.5,2013-03-06 10:35:00,
2013-03-06 05:40:00,34.2,30.7,30.13,ENE,61,4.0,6.0,87,0.00,,,0.00,weather-2.5,2013-03-06 10:40:00,
2013-03-06 05:45:00,34.0,30.8,30.14,ENE,73,6.0,6.0,88,0.00,,,0.00,weather-2.5,2013-03-06 10:45:00,
2013-03-06 05:50:00,33.9,30.7,30.14,ENE,74,6.0,11.0,88,0.00,,,0.00,weather-2.5,2013-03-06 10:50:00,
2013-03-06 05:55:00,33.8,30.6,30.14,ENE,72,4.0,5.0,88,0.00,,,0.00,weather-2.5,2013-03-06 10:55:00,
2013-03-06 06:00:00,33.7,30.5,30.14,ENE,65,7.0,10.0,88,0.00,,,0.00,weather-2.5,2013-03-06 11:00:00,
2013-03-06 06:05:00,33.6,30.4,30.14,ENE,70,5.0,10.0,88,0.00,,,0.00,weather-2.5,2013-03-06 11:05:00,
2013-03-06 06:10:00,33.6,30.4,30.14,ENE,69,5.0,9.0,88,0.00,,,0.00,weather-2.5,2013-03-06 11:10:00,
2013-03-06 06:15:00,33.6,30.4,30.14,ENE,60,4.0,8.0,88,0.00,,,0.00,weather-2.5,2013-03-06 11:15:00,
2013-03-06 06:20:00,33.6,30.4,30.14,ENE,76,6.0,9.0,88,0.00,,,0.00,weather-2.5,2013-03-06 11:20:00,
2013-03-06 06:25:00,33.7,30.2,30.15,ENE,66,6.0,6.0,87,0.00,,,0.00,weather-2.5,2013-03-06 11:25:00,
2013-03-06 06:30:00,33.7,30.2,30.15,ENE,57,8.0,14.0,87,0.00,,,0.00,weather-2.5,2013-03-06 11:30:00,
2013-03-06 06:35:00,33.7,30.2,30.15,ENE,73,7.0,12.0,87,0.00,,,0.00,weather-2.5,2013-03-06 11:35:00,
2013-03-06 06:40:00,33.8,30.3,30.15,ENE,67,6.0,12.0,87,0.00,,,0.00,weather-2.5,2013-03-06 11:40:00,
2013-03-06 06:45:00,33.9,30.4,30.15,ENE,68,6.0,9.0,87,0.00,,,0.00,weather-2.5,2013-03-06 11:45:00,
2013-03-06 06:50:00,34.0,30.3,30.15,ENE,61,6.0,10.0,86,0.00,,,0.00,weather-2.5,2013-03-06 11:50:00,
2013-03-06 06:55:00,34.0,30.3,30.15,ENE,65,5.0,6.0,86,0.00,,,0.00,weather-2.5,2013-03-06 11:55:00,
2013-03-06 07:00:00,34.1,30.4,30.15,ENE,57,7.0,7.0,86,0.00,,,0.00,weather-2.5,2013-03-06 12:00:00,
2013-03-06 07:05:00,34.3,30.3,30.15,ENE,69,7.0,12.0,85,0.00,,,0.00,weather-2.5,2013-03-06 12:05:00,
2013-03-06 07:10:00,34.4,30.4,30.15,ENE,61,7.0,15.0,85,0.00,,,0.00,weather-2.5,2013-03-06 12:10:00,
2013-03-06 07:15:00,34.5,30.5,30.15,ENE,57,6.0,15.0,85,0.00,,,0.00,weather-2.5,2013-03-06 12:15:00,
2013-03-06 07:20:00,34.6,30.6,30.16,ENE,66,5.0,7.0,85,0.00,,,0.00,weather-2.5,2013-03-06 12:20:00,
2013-03-06 07:25:00,34.7,30.4,30.16,ENE,69,8.0,11.0,84,0.00,,,0.00,weather-2.5,2013-03-06 12:25:00,
2013-03-06 07:30:00,35.3,30.7,30.16,ENE,70,8.0,9.0,83,0.00,,,0.00,weather-2.5,2013-03-06 12:30:00,
2013-03-06 07:35:00,35.7,30.8,30.15,ENE,68,6.0,7.0,82,0.00,,,0.00,weather-2.5,2013-03-06 12:35:00,
2013-03-06 07:40:00,35.8,30.6,30.15,ENE,78,8.0,10.0,81,0.00,,,0.00,weather-2.5,2013-03-06 12:40:00,
2013-03-06 07:45:00,35.8,30.2,30.15,ENE,71,8.0,14.0,80,0.00,,,0.00,weather-2.5,2013-03-06 12:45:00,
2013-03-06 07:50:00,35.9,30.3,30.15,ENE,60,8.0,13.0,80,0.00,,,0.00,weather-2.5,2013-03-06 12:50:00,
2013-03-06 07:55:00,35.8,29.9,30.16,NE,54,8.0,13.0,79,0.00,,,0.00,weather-2.5,2013-03-06 12:55:00,
2013-03-06 08:00:00,35.7,29.8,30.16,East,95,8.0,11.0,79,0.00,,,0.00,weather-2.5,2013-03-06 13:00:00,
2013-03-06 08:05:00,35.7,29.8,30.16,East,79,7.0,8.0,79,0.00,,,0.00,weather-2.5,2013-03-06 13:05:00,
2013-03-06 08:10:00,35.7,29.8,30.16,East,82,7.0,9.0,79,0.00,,,0.00,weather-2.5,2013-03-06 13:10:00,
2013-03-06 08:15:00,36.1,30.2,30.16,ENE,75,5.0,7.0,79,0.00,,,0.00,weather-2.5,2013-03-06 13:15:00,
2013-03-06 08:20:00,36.1,29.6,30.16,ENE,73,9.0,12.0,77,0.00,,,0.00,weather-2.5,2013-03-06 13:20:00,
2013-03-06 08:25:00,36.0,29.5,30.16,NE,56,9.0,9.0,77,0.00,,,0.00,weather-2.5,2013-03-06 13:25:00,
2013-03-06 08:30:00,36.0,29.5,30.16,East,80,11.0,18.0,77,0.00,,,0.00,weather-2.5,2013-03-06 13:30:00,
2013-03-06 08:35:00,35.9,29.4,30.16,ENE,64,8.0,9.0,77,0.00,,,0.00,weather-2.5,2013-03-06 13:35:00,
2013-03-06 08:40:00,36.0,29.2,30.17,East,93,14.0,19.0,76,0.00,,,0.00,weather-2.5,2013-03-06 13:40:00,
2013-03-06 08:45:00,36.1,29.0,30.17,East,80,11.0,11.0,75,0.00,,,0.00,weather-2.5,2013-03-06 13:45:00,
2013-03-06 08:50:00,36.3,29.1,30.17,East,81,8.0,10.0,75,0.00,,,0.00,weather-2.5,2013-03-06 13:50:00,
2013-03-06 08:55:00,36.2,28.4,30.17,East,83,13.0,13.0,73,0.00,,,0.00,weather-2.5,2013-03-06 13:55:00,
2013-03-06 09:00:00,36.1,28.6,30.17,East,88,8.0,12.0,74,0.00,,,0.00,weather-2.5,2013-03-06 14:00:00,
2013-03-06 09:05:00,36.2,28.4,30.17,ENE,70,8.0,12.0,73,0.00,,,0.00,weather-2.5,2013-03-06 14:05:00,
2013-03-06 09:10:00,36.1,28.3,30.18,ENE,72,7.0,14.0,73,0.00,,,0.00,weather-2.5,2013-03-06 14:10:00,
2013-03-06 09:15:00,36.0,27.9,30.17,East,80,8.0,12.0,72,0.00,,,0.00,weather-2.5,2013-03-06 14:15:00,
2013-03-06 09:20:00,36.7,28.2,30.17,ENE,64,8.0,10.0,71,0.00,,,0.00,weather-2.5,2013-03-06 14:20:00,
2013-03-06 09:25:00,37.0,28.1,30.18,East,84,11.0,17.0,70,0.00,,,0.00,weather-2.5,2013-03-06 14:25:00,
2013-03-06 09:30:00,37.0,27.8,30.18,ENE,65,7.0,9.0,69,0.00,,,0.00,weather-2.5,2013-03-06 14:30:00,
2013-03-06 09:35:00,37.0,27.8,30.18,East,79,5.0,6.0,69,0.00,,,0.00,weather-2.5,2013-03-06 14:35:00,
2013-03-06 09:40:00,37.5,27.9,30.18,NE,55,8.0,19.0,68,0.00,,,0.00,weather-2.5,2013-03-06 14:40:00,
2013-03-06 09:45:00,37.2,27.6,30.18,East,79,8.0,8.0,68,0.00,,,0.00,weather-2.5,2013-03-06 14:45:00,
2013-03-06 09:50:00,37.8,27.8,30.18,ESE,103,8.0,8.0,67,0.00,,,0.00,weather-2.5,2013-03-06 14:50:00,
2013-03-06 09:55:00,37.7,27.7,30.18,East,81,7.0,10.0,67,0.00,,,0.00,weather-2.5,2013-03-06 14:55:00,
2013-03-06 10:00:00,37.6,27.7,30.18,East,80,8.0,8.0,67,0.00,,,0.00,weather-2.5,2013-03-06 15:00:00,
2013-03-06 10:05:00,37.5,27.6,30.18,ENE,62,7.0,8.0,67,0.00,,,0.00,weather-2.5,2013-03-06 15:05:00,
2013-03-06 10:10:00,37.4,27.5,30.18,ENE,68,7.0,15.0,67,0.00,,,0.00,weather-2.5,2013-03-06 15:10:00,
2013-03-06 10:15:00,37.5,27.9,30.18,East,93,5.0,8.0,68,0.00,,,0.00,weather-2.5,2013-03-06 15:15:00,
2013-03-06 10:20:00,37.4,27.5,30.18,East,83,8.0,12.0,67,0.00,,,0.00,weather-2.5,2013-03-06 15:20:00,
2013-03-06 10:25:00,37.1,27.9,30.18,ENE,78,8.0,11.0,69,0.00,,,0.00,weather-2.5,2013-03-06 15:25:00,
2013-03-06 10:30:00,36.7,28.5,30.18,NE,48,6.0,8.0,72,0.00,,,0.00,weather-2.5,2013-03-06 15:30:00,
2013-03-06 10:37:00,36.3,28.5,30.18,ENE,57,7.0,7.0,73,0.00,,,0.00,weather-2.5,2013-03-06 15:37:00,
2013-03-06 10:42:00,36.2,28.4,30.18,East,86,8.0,12.0,73,0.00,,,0.00,weather-2.5,2013-03-06 15:42:00,
2013-03-06 10:47:00,36.1,28.6,30.18,ENE,72,7.0,8.0,74,0.00,,,0.00,weather-2.5,2013-03-06 15:47:00,
2013-03-06 10:52:00,36.1,29.0,30.18,East,79,8.0,12.0,75,0.00,,,0.00,weather-2.5,2013-03-06 15:52:00,
2013-03-06 10:57:00,36.3,29.1,30.18,ENE,71,7.0,10.0,75,0.00,,,0.00,weather-2.5,2013-03-06 15:57:00,
2013-03-06 11:02:00,36.5,29.7,30.18,ENE,57,8.0,11.0,76,0.00,,,0.00,weather-2.5,2013-03-06 16:02:00,
2013-03-06 11:07:00,36.4,29.6,30.18,ENE,67,4.0,8.0,76,0.00,,,0.00,weather-2.5,2013-03-06 16:07:00,
2013-03-06 11:12:00,36.4,29.6,30.18,NE,40,4.0,8.0,76,0.00,,,0.00,weather-2.5,2013-03-06 16:12:00,
2013-03-06 11:17:00,36.5,29.3,30.18,ENE,70,5.0,9.0,75,0.00,,,0.00,weather-2.5,2013-03-06 16:17:00,
2013-03-06 11:22:00,36.4,28.9,30.18,ENE,72,8.0,13.0,74,0.00,,,0.00,weather-2.5,2013-03-06 16:22:00,
2013-03-06 11:27:00,36.4,28.9,30.18,ENE,78,10.0,13.0,74,0.00,,,0.00,weather-2.5,2013-03-06 16:27:00,
2013-03-06 11:32:00,36.5,29.3,30.18,ENE,71,4.0,5.0,75,0.00,,,0.00,weather-2.5,2013-03-06 16:32:00,
2013-03-06 11:37:00,36.6,29.8,30.18,ENE,60,11.0,16.0,76,0.00,,,0.00,weather-2.5,2013-03-06 16:37:00,
2013-03-06 11:42:00,36.7,29.9,30.17,NE,54,7.0,8.0,76,0.00,,,0.00,weather-2.5,2013-03-06 16:42:00,
2013-03-06 11:47:00,36.8,30.3,30.18,ENE,66,5.0,9.0,77,0.00,,,0.00,weather-2.5,2013-03-06 16:47:00,
2013-03-06 11:52:00,36.7,30.5,30.18,East,79,8.0,14.0,78,0.00,,,0.00,weather-2.5,2013-03-06 16:52:00,
2013-03-06 11:57:00,36.2,30.3,30.18,ENE,72,7.0,10.0,79,0.00,,,0.00,weather-2.5,2013-03-06 16:57:00,
2013-03-06 12:02:00,35.8,30.2,30.18,East,100,8.0,12.0,80,0.00,,,0.00,weather-2.5,2013-03-06 17:02:00,
2013-03-06 12:07:00,35.7,30.8,30.18,ENE,59,4.0,7.0,82,0.00,,,0.00,weather-2.5,2013-03-06 17:07:00,
2013-03-06 12:12:00,35.7,30.8,30.18,East,83,6.0,10.0,82,0.00,,,0.00,weather-2.5,2013-03-06 17:12:00,
2013-03-06 12:17:00,35.5,31.2,30.17,ENE,64,7.0,10.0,84,0.00,,,0.00,weather-2.5,2013-03-06 17:17:00,
2013-03-06 12:22:00,35.1,31.3,30.17,ENE,60,7.0,9.0,86,0.00,,,0.00,weather-2.5,2013-03-06 17:22:00,
2013-03-06 12:27:00,34.7,31.5,30.17,ENE,63,5.0,8.0,88,0.00,,,0.00,weather-2.5,2013-03-06 17:27:00,
2013-03-06 12:32:00,34.7,31.5,30.17,ENE,60,4.0,5.0,88,0.00,,,0.00,weather-2.5,2013-03-06 17:32:00,
2013-03-06 12:37:00,34.9,31.7,30.17,ENE,62,4.0,5.0,88,0.00,,,0.00,weather-2.5,2013-03-06 17:37:00,
2013-03-06 12:42:00,34.8,31.6,30.17,NE,36,4.0,7.0,88,0.00,,,0.00,weather-2.5,2013-03-06 17:42:00,
2013-03-06 12:47:00,34.0,31.4,30.17,ENE,63,4.0,6.0,90,0.00,,,0.00,weather-2.5,2013-03-06 17:47:00,
2013-03-06 12:52:00,33.9,31.6,30.17,ENE,60,2.0,4.0,91,0.00,,,0.00,weather-2.5,2013-03-06 17:52:00,
2013-03-06 12:57:00,34.3,32.2,30.16,ENE,71,3.0,5.0,92,0.00,,,0.00,weather-2.5,2013-03-06 17:57:00,
2013-03-06 13:02:00,34.5,32.1,30.16,NE,55,3.0,4.0,91,0.00,,,0.00,weather-2.5,2013-03-06 18:02:00,
2013-03-06 13:07:00,34.7,32.1,30.16,NE,52,3.0,5.0,90,0.00,,,0.00,weather-2.5,2013-03-06 18:07:00,
2013-03-06 13:12:00,34.8,31.6,30.15,ENE,57,7.0,9.0,88,0.00,,,0.00,weather-2.5,2013-03-06 18:12:00,
2013-03-06 13:17:00,34.9,31.4,30.15,ENE,62,6.0,7.0,87,0.01,,,0.01,weather-2.5,2013-03-06 18:17:00,
2013-03-06 13:22:00,35.2,31.4,30.14,ENE,73,6.0,10.0,86,0.01,,,0.01,weather-2.5,2013-03-06 18:22:00,
2013-03-06 13:27:00,35.6,31.5,30.14,ENE,66,5.0,9.0,85,0.01,,,0.01,weather-2.5,2013-03-06 18:27:00,
2013-03-06 13:32:00,35.7,31.3,30.15,ENE,72,7.0,9.0,84,0.01,,,0.01,weather-2.5,2013-03-06 18:32:00,
2013-03-06 13:37:00,36.0,31.3,30.15,East,84,5.0,9.0,83,0.01,,,0.01,weather-2.5,2013-03-06 18:37:00,
2013-03-06 13:42:00,36.3,31.3,30.15,ENE,71,5.0,7.0,82,0.01,,,0.01,weather-2.5,2013-03-06 18:42:00,
2013-03-06 13:47:00,36.6,31.0,30.15,East,81,6.0,9.0,80,0.01,,,0.01,weather-2.5,2013-03-06 18:47:00,
2013-03-06 13:52:00,36.7,30.8,30.15,ENE,73,5.0,9.0,79,0.01,,,0.01,weather-2.5,2013-03-06 18:52:00,
2013-03-06 13:57:00,36.9,29.7,30.15,East,86,10.0,12.0,75,0.01,,,0.01,weather-2.5,2013-03-06 18:57:00,
2013-03-06 14:02:00,37.0,28.8,30.15,ENE,77,12.0,18.0,72,0.01,,,0.01,weather-2.5,2013-03-06 19:02:00,
2013-03-06 14:07:00,37.0,28.5,30.15,East,79,12.0,19.0,71,0.01,,,0.01,weather-2.5,2013-03-06 19:07:00,
2013-03-06 14:12:00,37.0,28.5,30.15,East,92,11.0,14.0,71,0.01,,,0.01,weather-2.5,2013-03-06 19:12:00,
2013-03-06 14:17:00,37.1,28.9,30.16,East,83,5.0,9.0,72,0.00,,,0.01,weather-2.5,2013-03-06 19:17:00,
2013-03-06 14:22:00,37.1,28.6,30.16,ENE,74,8.0,10.0,71,0.00,,,0.01,weather-2.5,2013-03-06 19:22:00,
2013-03-06 14:27:00,36.8,27.9,30.16,East,87,17.0,25.0,70,0.00,,,0.01,weather-2.5,2013-03-06 19:27:00,
2013-03-06 14:32:00,36.5,28.0,30.16,ENE,73,12.0,16.0,71,0.00,,,0.01,weather-2.5,2013-03-06 19:32:00,
2013-03-06 14:37:00,36.4,28.2,30.16,East,86,12.0,16.0,72,0.00,,,0.01,weather-2.5,2013-03-06 19:37:00,
2013-03-06 14:42:00,36.2,28.4,30.16,ENE,69,9.0,15.0,73,0.00,,,0.01,weather-2.5,2013-03-06 19:42:00,
2013-03-06 14:47:00,35.7,28.9,30.17,ENE,71,12.0,18.0,76,0.00,,,0.01,weather-2.5,2013-03-06 19:47:00,
2013-03-06 14:52:00,35.4,29.2,30.17,ENE,78,10.0,12.0,78,0.00,,,0.01,weather-2.5,2013-03-06 19:52:00,
2013-03-06 14:57:00,35.5,29.0,30.17,ENE,74,7.0,13.0,77,0.00,,,0.01,weather-2.5,2013-03-06 19:57:00,
2013-03-06 15:02:00,35.7,28.9,30.17,ENE,74,9.0,20.0,76,0.00,,,0.01,weather-2.5,2013-03-06 20:02:00,
2013-03-06 15:07:00,35.7,28.9,30.17,ENE,76,6.0,9.0,76,0.00,,,0.01,weather-2.5,2013-03-06 20:07:00,
2013-03-06 15:12:00,35.8,28.3,30.17,ENE,77,9.0,15.0,74,0.00,,,0.01,weather-2.5,2013-03-06 20:12:00,
2013-03-06 15:17:00,35.8,28.0,30.17,East,91,9.0,11.0,73,0.00,,,0.01,weather-2.5,2013-03-06 20:17:00,
2013-03-06 15:22:00,35.9,28.4,30.17,East,87,5.0,9.0,74,0.00,,,0.01,weather-2.5,2013-03-06 20:22:00,
2013-03-06 15:27:00,35.8,28.0,30.17,East,80,8.0,13.0,73,0.00,,,0.01,weather-2.5,2013-03-06 20:27:00,
2013-03-06 15:32:00,35.7,28.2,30.17,East,82,6.0,10.0,74,0.00,,,0.01,weather-2.5,2013-03-06 20:32:00,
2013-03-06 15:37:00,35.5,29.0,30.18,East,79,7.0,10.0,77,0.00,,,0.01,weather-2.5,2013-03-06 20:37:00,
2013-03-06 15:42:00,35.4,28.6,30.18,ENE,75,8.0,17.0,76,0.00,,,0.01,weather-2.5,2013-03-06 20:42:00,
2013-03-06 15:47:00,35.4,28.6,30.18,ENE,76,10.0,17.0,76,0.00,,,0.01,weather-2.5,2013-03-06 20:47:00,
2013-03-06 15:52:00,35.2,29.0,30.18,NE,56,9.0,16.0,78,0.00,,,0.01,weather-2.5,2013-03-06 20:52:00,
2013-03-06 15:57:00,35.1,28.6,30.17,East,82,7.0,8.0,77,0.00,,,0.01,weather-2.5,2013-03-06 20:57:00,
2013-03-06 16:02:00,35.2,28.4,30.17,ENE,67,7.0,12.0,76,0.00,,,0.01,weather-2.5,2013-03-06 21:02:00,
2013-03-06 16:07:00,35.2,28.1,30.17,ENE,78,8.0,10.0,75,0.00,,,0.01,weather-2.5,2013-03-06 21:07:00,
2013-03-06 16:12:00,35.3,27.9,30.17,ENE,68,9.0,11.0,74,0.00,,,0.01,weather-2.5,2013-03-06 21:12:00,
2013-03-06 16:17:00,35.3,27.5,30.17,ENE,75,11.0,15.0,73,0.00,,,0.01,weather-2.5,2013-03-06 21:17:00,
2013-03-06 16:22:00,35.3,27.5,30.17,East,79,11.0,16.0,73,0.00,,,0.01,weather-2.5,2013-03-06 21:22:00,
2013-03-06 16:27:00,35.2,27.8,30.16,East,82,10.0,12.0,74,0.00,,,0.01,weather-2.5,2013-03-06 21:27:00,
2013-03-06 16:32:00,35.0,27.9,30.17,ENE,78,11.0,16.0,75,0.00,,,0.01,weather-2.5,2013-03-06 21:32:00,
2013-03-06 16:37:00,34.8,28.3,30.17,ENE,62,7.0,9.0,77,0.00,,,0.01,weather-2.5,2013-03-06 21:37:00,
2013-03-06 16:42:00,34.5,28.4,30.17,East,79,8.0,11.0,78,0.00,,,0.01,weather-2.5,2013-03-06 21:42:00,
2013-03-06 16:47:00,34.4,28.3,30.17,ENE,67,10.0,14.0,78,0.00,,,0.01,weather-2.5,2013-03-06 21:47:00,
2013-03-06 16:52:00,34.4,28.3,30.17,East,82,9.0,15.0,78,0.00,,,0.01,weather-2.5,2013-03-06 21:52:00,
2013-03-06 16:57:00,34.3,28.2,30.17,ENE,70,8.0,13.0,78,0.00,,,0.01,weather-2.5,2013-03-06 21:57:00,
2013-03-06 17:02:00,34.3,28.2,30.18,ENE,76,7.0,10.0,78,0.00,,,0.01,weather-2.5,2013-03-06 22:02:00,
2013-03-06 17:07:00,34.2,28.1,30.18,East,80,10.0,12.0,78,0.00,,,0.01,weather-2.5,2013-03-06 22:07:00,
2013-03-06 17:12:00,34.1,28.0,30.18,ENE,77,6.0,7.0,78,0.00,,,0.01,weather-2.5,2013-03-06 22:12:00,
2013-03-06 17:17:00,34.1,28.0,30.18,ENE,70,6.0,12.0,78,0.00,,,0.01,weather-2.5,2013-03-06 22:17:00,
2013-03-06 17:22:00,34.1,27.7,30.18,ENE,70,7.0,9.0,77,0.00,,,0.01,weather-2.5,2013-03-06 22:22:00,
2013-03-06 17:27:00,34.1,27.7,30.19,ENE,73,7.0,10.0,77,0.00,,,0.01,weather-2.5,2013-03-06 22:27:00,
2013-03-06 17:32:00,34.2,27.8,30.19,East,82,9.0,14.0,77,0.00,,,0.01,weather-2.5,2013-03-06 22:32:00,
2013-03-06 17:37:00,34.1,27.7,30.19,ENE,68,7.0,10.0,77,0.00,,,0.01,weather-2.5,2013-03-06 22:37:00,
2013-03-06 17:42:00,34.1,27.3,30.19,NE,53,7.0,11.0,76,0.00,,,0.01,weather-2.5,2013-03-06 22:42:00,
2013-03-06 17:47:00,34.2,27.4,30.20,East,83,8.0,9.0,76,0.00,,,0.01,weather-2.5,2013-03-06 22:47:00,
2013-03-06 17:52:00,34.1,27.7,30.20,East,79,9.0,9.0,77,0.00,,,0.01,weather-2.5,2013-03-06 22:52:00,
2013-03-06 17:57:00,34.1,27.3,30.20,East,87,14.0,15.0,76,0.00,,,0.01,weather-2.5,2013-03-06 22:57:00,
2013-03-06 18:02:00,34.1,27.3,30.20,East,83,13.0,15.0,76,0.00,,,0.01,weather-2.5,2013-03-06 23:02:00,
2013-03-06 18:07:00,34.1,27.3,30.20,East,79,12.0,18.0,76,0.00,,,0.01,weather-2.5,2013-03-06 23:07:00,
2013-03-06 18:12:00,34.0,27.2,30.19,ENE,71,12.0,15.0,76,0.00,,,0.01,weather-2.5,2013-03-06 23:12:00,
2013-03-06 18:17:00,33.9,27.1,30.19,ENE,77,9.0,13.0,76,0.00,,,0.01,weather-2.5,2013-03-06 23:17:00,
2013-03-06 18:22:00,33.9,27.5,30.19,ENE,66,9.0,9.0,77,0.00,,,0.01,weather-2.5,2013-03-06 23:22:00,
2013-03-06 18:27:00,33.8,27.4,30.19,ENE,76,9.0,12.0,77,0.00,,,0.01,weather-2.5,2013-03-06 23:27:00,
2013-03-06 18:32:00,33.7,27.3,30.19,ENE,57,7.0,13.0,77,0.00,,,0.01,weather-2.5,2013-03-06 23:32:00,
2013-03-06 18:37:00,33.7,27.3,30.19,ENE,74,8.0,11.0,77,0.00,,,0.01,weather-2.5,2013-03-06 23:37:00,
2013-03-06 18:42:00,33.6,27.5,30.20,NE,55,8.0,14.0,78,0.00,,,0.01,weather-2.5,2013-03-06 23:42:00,
2013-03-06 18:47:00,33.5,27.4,30.20,East,81,6.0,8.0,78,0.00,,,0.01,weather-2.5,2013-03-06 23:47:00,
2013-03-06 18:52:00,33.5,27.4,30.20,ENE,74,8.0,8.0,78,0.00,,,0.01,weather-2.5,2013-03-06 23:52:00,
2013-03-06 18:57:00,33.4,27.6,30.20,ENE,64,5.0,6.0,79,0.00,,,0.01,weather-2.5,2013-03-06 23:57:00,
2013-03-06 19:02:00,33.4,27.6,30.20,ENE,72,6.0,7.0,79,0.00,,,0.01,weather-2.5,2013-03-07 00:02:00,
2013-03-06 19:07:00,33.3,27.5,30.20,ENE,68,6.0,10.0,79,0.00,,,0.01,weather-2.5,2013-03-07 00:07:00,
2013-03-06 19:12:00,33.3,27.2,30.20,ENE,76,9.0,11.0,78,0.00,,,0.01,weather-2.5,2013-03-07 00:12:00,
2013-03-06 19:17:00,33.3,27.2,30.19,ENE,68,7.0,10.0,78,0.00,,,0.01,weather-2.5,2013-03-07 00:17:00,
2013-03-06 19:22:00,33.3,27.2,30.19,ENE,65,7.0,12.0,78,0.00,,,0.01,weather-2.5,2013-03-07 00:22:00,
2013-03-06 19:27:00,33.3,27.2,30.19,ENE,61,5.0,8.0,78,0.00,,,0.01,weather-2.5,2013-03-07 00:27:00,
2013-03-06 19:32:00,33.2,27.1,30.19,NE,55,5.0,10.0,78,0.00,,,0.01,weather-2.5,2013-03-07 00:32:00,
2013-03-06 19:37:00,33.3,26.9,30.19,ENE,59,7.0,7.0,77,0.00,,,0.01,weather-2.5,2013-03-07 00:37:00,
2013-03-06 19:42:00,33.3,26.9,30.19,ENE,68,6.0,10.0,77,0.00,,,0.01,weather-2.5,2013-03-07 00:42:00,
2013-03-06 19:47:00,33.3,26.6,30.19,ENE,60,5.0,7.0,76,0.00,,,0.01,weather-2.5,2013-03-07 00:47:00,
2013-03-06 19:52:00,33.3,26.9,30.19,ENE,63,4.0,7.0,77,0.00,,,0.01,weather-2.5,2013-03-07 00:52:00,
2013-03-06 19:57:00,33.3,26.6,30.19,ENE,71,7.0,10.0,76,0.00,,,0.01,weather-2.5,2013-03-07 00:57:00,
2013-03-06 20:02:00,33.3,26.6,30.18,ENE,71,8.0,10.0,76,0.00,,,0.01,weather-2.5,2013-03-07 01:02:00,
2013-03-06 20:07:00,33.3,26.6,30.18,ENE,64,6.0,8.0,76,0.00,,,0.01,weather-2.5,2013-03-07 01:07:00,
2013-03-06 20:12:00,33.2,26.5,30.18,ENE,64,8.0,11.0,76,0.00,,,0.01,weather-2.5,2013-03-07 01:12:00,
2013-03-06 20:17:00,33.2,26.5,30.18,ENE,68,5.0,8.0,76,0.00,,,0.01,weather-2.5,2013-03-07 01:17:00,
2013-03-06 20:22:00,33.2,26.5,30.18,ENE,63,7.0,15.0,76,0.00,,,0.01,weather-2.5,2013-03-07 01:22:00,
2013-03-06 20:27:00,33.2,26.1,30.18,ENE,62,6.0,7.0,75,0.00,,,0.01,weather-2.5,2013-03-07 01:27:00,
2013-03-06 20:32:00,33.2,26.1,30.18,ENE,64,7.0,13.0,75,0.00,,,0.01,weather-2.5,2013-03-07 01:32:00,
2013-03-06 20:37:00,33.2,26.1,30.18,ENE,68,9.0,11.0,75,0.00,,,0.01,weather-2.5,2013-03-07 01:37:00,
2013-03-06 20:42:00,33.2,26.1,30.18,ENE,70,7.0,7.0,75,0.00,,,0.01,weather-2.5,2013-03-07 01:42:00,
2013-03-06 20:47:00,33.1,26.1,30.18,ENE,71,6.0,9.0,75,0.00,,,0.01,weather-2.5,2013-03-07 01:47:00,
2013-03-06 20:52:00,33.1,26.1,30.17,NE,47,5.0,10.0,75,0.00,,,0.01,weather-2.5,2013-03-07 01:52:00,
2013-03-06 20:57:00,33.0,26.3,30.17,ENE,62,10.0,12.0,76,0.00,,,0.01,weather-2.5,2013-03-07 01:57:00,
2013-03-06 21:02:00,32.9,26.5,30.17,NE,51,11.0,16.0,77,0.00,,,0.01,weather-2.5,2013-03-07 02:02:00,
2013-03-06 21:07:00,32.8,26.4,30.17,ENE,64,7.0,7.0,77,0.00,,,0.01,weather-2.5,2013-03-07 02:07:00,
2013-03-06 21:12:00,32.6,26.5,30.17,ENE,64,11.0,14.0,78,0.00,,,0.01,weather-2.5,2013-03-07 02:12:00,
2013-03-06 21:17:00,32.5,26.7,30.17,ENE,64,11.0,14.0,79,0.00,,,0.01,weather-2.5,2013-03-07 02:17:00,
2013-03-06 21:22:00,32.3,26.8,30.17,NE,53,4.0,10.0,80,0.00,,,0.01,weather-2.5,2013-03-07 02:22:00,
2013-03-06 21:27:00,32.2,26.7,30.17,ENE,68,12.0,13.0,80,0.00,,,0.01,weather-2.5,2013-03-07 02:27:00,
2013-03-06 21:32:00,32.1,26.6,30.17,ENE,66,6.0,10.0,80,0.00,,,0.01,weather-2.5,2013-03-07 02:32:00,
2013-03-06 21:37:00,32.0,26.8,30.16,ENE,64,8.0,14.0,81,0.00,,,0.01,weather-2.5,2013-03-07 02:37:00,
2013-03-06 21:42:00,31.9,26.7,30.17,NE,53,6.0,8.0,81,0.00,,,0.01,weather-2.5,2013-03-07 02:42:00,
2013-03-06 21:47:00,31.8,26.9,30.17,NE,39,5.0,6.0,82,0.00,,,0.01,weather-2.5,2013-03-07 02:47:00,
2013-03-06 21:52:00,31.7,27.1,30.17,NE,42,3.0,6.0,83,0.00,,,0.01,weather-2.5,2013-03-07 02:52:00,
2013-03-06 21:57:00,31.7,27.1,30.16,NE,41,5.0,7.0,83,0.00,,,0.01,weather-2.5,2013-03-07 02:57:00,
2013-03-06 22:02:00,31.6,27.3,30.16,ENE,59,6.0,10.0,84,0.00,,,0.01,weather-2.5,2013-03-07 03:02:00,
2013-03-06 22:07:00,31.6,27.3,30.16,NE,56,4.0,4.0,84,0.00,,,0.01,weather-2.5,2013-03-07 03:07:00,
2013-03-06 22:12:00,31.6,27.3,30.16,ENE,62,5.0,8.0,84,0.00,,,0.01,weather-2.5,2013-03-07 03:12:00,
2013-03-06 22:17:00,31.5,27.2,30.16,NE,43,5.0,8.0,84,0.00,,,0.01,weather-2.5,2013-03-07 03:17:00,
2013-03-06 22:22:00,31.5,27.2,30.16,NE,50,4.0,8.0,84,0.00,,,0.01,weather-2.5,2013-03-07 03:22:00,
2013-03-06 22:27:00,31.4,27.4,30.16,NE,52,6.0,9.0,85,0.00,,,0.01,weather-2.5,2013-03-07 03:27:00,
2013-03-06 22:32:00,31.4,27.4,30.16,NNW,346,4.0,14.0,85,0.00,,,0.01,weather-2.5,2013-03-07 03:32:00,
2013-03-06 22:37:00,31.3,27.3,30.16,ENE,67,3.0,5.0,85,0.00,,,0.01,weather-2.5,2013-03-07 03:37:00,
2013-03-06 22:42:00,31.3,27.3,30.16,NE,50,7.0,12.0,85,0.00,,,0.01,weather-2.5,2013-03-07 03:42:00,
2013-03-06 22:47:00,31.4,27.1,30.16,NE,43,6.0,12.0,84,0.00,,,0.01,weather-2.5,2013-03-07 03:47:00,
2013-03-06 22:52:00,31.4,27.4,30.16,NE,34,3.0,7.0,85,0.00,,,0.01,weather-2.5,2013-03-07 03:52:00,
2013-03-06 22:57:00,31.3,27.3,30.16,NE,44,6.0,12.0,85,0.00,,,0.01,weather-2.5,2013-03-07 03:57:00,
2013-03-06 23:02:00,31.2,27.2,30.15,NE,43,6.0,9.0,85,0.00,,,0.01,weather-2.5,2013-03-07 04:02:00,
2013-03-06 23:07:00,31.2,27.5,30.15,NE,53,5.0,10.0,86,0.00,,,0.01,weather-2.5,2013-03-07 04:07:00,
2013-03-06 23:12:00,31.1,27.4,30.15,NE,53,4.0,8.0,86,0.00,,,0.01,weather-2.5,2013-03-07 04:12:00,
2013-03-06 23:17:00,31.0,27.3,30.15,NE,56,4.0,7.0,86,0.00,,,0.01,weather-2.5,2013-03-07 04:17:00,
2013-03-06 23:22:00,31.0,27.3,30.14,NNE,26,6.0,10.0,86,0.00,,,0.01,weather-2.5,2013-03-07 04:22:00,
2013-03-06 23:27:00,31.0,27.3,30.15,ENE,62,6.0,8.0,86,0.00,,,0.01,weather-2.5,2013-03-07 04:27:00,
2013-03-06 23:32:00,31.0,27.3,30.15,NE,37,4.0,9.0,86,0.00,,,0.01,weather-2.5,2013-03-07 04:32:00,
2013-03-06 23:37:00,31.0,27.3,30.15,NNE,23,6.0,7.0,86,0.00,,,0.01,weather-2.5,2013-03-07 04:37:00,
2013-03-06 23:42:00,30.9,27.2,30.15,NE,46,4.0,8.0,86,0.00,,,0.01,weather-2.5,2013-03-07 04:42:00,
2013-03-06 23:47:00,30.9,27.2,30.15,NE,45,4.0,6.0,86,0.00,,,0.01,weather-2.5,2013-03-07 04:47:00,
2013-03-06 23:52:00,30.9,27.5,30.15,NE,46,4.0,6.0,87,0.00,,,0.01,weather-2.5,2013-03-07 04:52:00,
2013-03-06 23:57:00,30.8,27.4,30.14,NE,45,4.0,6.0,87,0.00,,,0.01,weather-2.5,2013-03-07 04:57:00,